Weather History for Champaign, IL

Change the Weather History Date:

Sunday, June 23, 2013

  Actual Average Record
Temperature  
Mean Temperature 74 °F 74 °F  
Max Temperature 81 °F 85 °F 91 °F (1997)
Min Temperature 67 °F 63 °F 51 °F (2004)
Degree Days  
Heating Degree Days 0 0  
Month to date heating degree days 13 14  
Since 1 June heating degree days 13 14  
Since 1 July heating degree days 5651 5820  
Cooling Degree Days 9 9  
Month to date cooling degree days 162 159  
Year to date cooling degree days 294 251  
Since 1 June cooling degree days 162 159  
Growing Degree Days 24 (Base 50)    
Moisture  
Dew Point 68 °F    
Average Humidity 81    
Maximum Humidity 100    
Minimum Humidity 62    
Precipitation  
Precipitation 0.00 in 0.13 in 1.78 in (2007)
Month to date precipitation 0.50 3.38  
Year to date precipitation 16.18 18.54  
Sea Level Pressure  
Sea Level Pressure 30.04 in    
Wind  
Wind Speed 10 mph (South)    
Max Wind Speed 20 mph    
Max Gust Speed 25 mph    
Visibility 10 miles    
Events      
T = Trace of Precipitation, MM = Missing Value Source: NWS Daily Summary

Daily Weather History Graph

Daily Weather History Graph

Search for Another Location

Airport:

Trip Planner

Search our weather history database for the weather conditions in past years. The results will help you decide how hot, cold, wet, or windy it might be!

Date:

Astronomy

Jun. 23, 2013 Rise Set
Actual Time 5:24 AM CDT 8:25 PM CDT
Civil Twilight 4:51 AM CDT 8:58 PM CDT
Nautical Twilight 4:10 AM CDT 9:40 PM CDT
Astronomical Twilight 3:21 AM CDT 10:29 PM CDT
Moon 8:38 PM CDT (6/23) 5:42 AM CDT (6/23)
Length of Visible Light 16h 06m
Length of Day
15h 01m
Full, 100% of the Moon is Illuminated
Jun 23
Full
Jun 29
Last Quarter
Jul 8
New
Jul 15
First Quarter
Jul 22
Full

Hourly Weather History & Observations

Time (CDT) Temp. Heat Index Dew Point Humidity Pressure Visibility Wind Dir Wind Speed Gust Speed Precip Events Conditions
12:53 AM 66.9 °F - 66.0 °F 97% 30.06 in 9.0 mi SE 6.9 mph - N/A   Clear
1:53 AM 66.9 °F - 64.9 °F 93% 30.07 in 10.0 mi SE 6.9 mph - N/A   Clear
2:53 AM 66.9 °F - 64.9 °F 93% 30.04 in 10.0 mi SE 4.6 mph - N/A   Clear
3:53 AM 66.9 °F - 64.9 °F 93% 30.04 in 9.0 mi SSE 4.6 mph - N/A   Clear
4:53 AM 66.9 °F - 64.9 °F 93% 30.05 in 9.0 mi ESE 4.6 mph - N/A   Clear
5:53 AM 68.0 °F - 64.9 °F 90% 30.06 in 10.0 mi SSE 4.6 mph - N/A   Clear
6:53 AM 68.0 °F - 64.9 °F 90% 30.08 in 10.0 mi SE 6.9 mph - N/A   Clear
7:53 AM 71.1 °F - 66.0 °F 84% 30.07 in 10.0 mi South 6.9 mph - N/A   Scattered Clouds
8:53 AM 73.0 °F - 68.0 °F 84% 30.05 in 10.0 mi South 11.5 mph - N/A   Clear
9:53 AM 75.0 °F - 69.1 °F 82% 30.05 in 10.0 mi South 12.7 mph - N/A   Clear
10:53 AM 79.0 °F - 69.1 °F 72% 30.05 in 10.0 mi SW 13.8 mph - N/A   Partly Cloudy
11:53 AM 79.0 °F - 70.0 °F 74% 30.07 in 10.0 mi SSW 15.0 mph 21.9 mph N/A   Scattered Clouds
12:53 PM 80.1 °F 83.2 °F 70.0 °F 71% 30.08 in 10.0 mi SSW 16.1 mph - N/A   Overcast
1:53 PM 81.0 °F 84.4 °F 70.0 °F 69% 30.07 in 10.0 mi South 16.1 mph 25.3 mph N/A   Scattered Clouds
2:53 PM 80.1 °F 82.9 °F 69.1 °F 69% 30.05 in 10.0 mi SSW 17.3 mph 25.3 mph N/A   Clear
3:53 PM 80.1 °F 82.9 °F 69.1 °F 69% 30.01 in 10.0 mi South 16.1 mph - N/A   Clear
4:53 PM 80.1 °F 82.3 °F 66.9 °F 64% 30.01 in 10.0 mi SSW 18.4 mph 21.9 mph N/A   Clear
5:53 PM 78.1 °F - 69.1 °F 74% 30.01 in 10.0 mi South 10.4 mph - N/A   Clear
6:53 PM 77.0 °F - 69.1 °F 76% 30.01 in 10.0 mi South 8.1 mph - N/A   Clear
7:53 PM 75.9 °F - 69.1 °F 79% 30.00 in 10.0 mi SSE 11.5 mph - N/A   Mostly Cloudy
8:53 PM 73.0 °F - 69.1 °F 87% 29.99 in 9.0 mi SSE 15.0 mph 21.9 mph N/A   Clear
9:53 PM 72.0 °F - 69.1 °F 91% 30.01 in 7.0 mi South 9.2 mph - N/A   Clear
10:53 PM 71.1 °F - 69.1 °F 93% 30.04 in 5.0 mi SSW 3.5 mph - N/A   Clear
11:53 PM 69.1 °F - 66.0 °F 90% 30.04 in 10.0 mi SSW 4.6 mph - N/A   Clear